User: anonymous
Location: Wildcat Hills Observatory
(41.6350°N, 103.6812°W)
Time: 11:35:06
(UTC-06:00)
Language:

Cosmos 1634 Rocket - Orbit

View from above orbital plane
View from above orbital plane
View from above satellite
View from above satellite

Ground track
Ground track

The orbit data is extracted from the following two-line orbital elements,

1 15598U 85022B   14211.81401868 -.00000002  00000-0 -17831-4 0  6928
2 15598 082.9395 169.2850 0022784 168.8780 254.3072 13.76487728475684
Epoch (UTC): 30 July 2014 19:32:11
Eccentricity: 0.0022784
inclination: 82.9395°
perigee height: 959 km
apogee height: 993 km
right ascension of ascending node: 169.2850°
argument of perigee: 168.8780°
revolutions per day: 13.76487728
mean anomaly at epoch: 254.3072°
orbit number at epoch: 47568

The dashed part of the orbit path shows where the satellite is in the earth's shadow,  

DLR